DW4387 Weather Reports


time (UTC)temp
C
wind
direction
speed
KPH
gust
KPH
rain 1hr
cm
rain 24hr
cm
rain mn
cm
humidity
%
barometer
mb
20190425025108 12 203 0.0 0.0 0.00 0.56 0.00 81 1004.5
20190425024608 12 203 0.0 0.0 0.00 0.56 0.00 81 1004.6
20190425023108 12 203 0.0 0.0 0.00 0.56 0.00 81 1004.1
20190425022608 12 203 0.0 0.0 0.00 0.56 0.00 81 1004.2
20190425021108 12 203 0.0 0.0 0.00 0.56 0.00 81 1004.2
20190425020107 12 203 0.0 0.0 0.00 0.56 0.00 81 1004.1
20190425015608 12 203 0.0 0.0 0.00 0.56 0.00 81 1004.2
20190425015107 12 203 0.0 0.0 0.00 0.56 0.00 81 1004.2
20190425014108 13 203 0.0 0.0 0.00 0.56 0.00 81 1004.2
20190425013608 13 203 0.0 0.0 0.00 0.56 0.00 81 1004.1
20190425012608 13 203 0.0 0.0 0.00 0.56 0.00 81 1004.2
20190425012108 13 203 3.2 3.2 0.00 0.56 0.00 81 1004.0
20190425011608 13 180 3.2 3.2 0.00 0.56 0.00 81 1004.2
20190425011107 13 203 3.2 3.2 0.00 0.56 0.00 81 1004.2
20190425005608 13 203 9.7 9.7 0.00 0.56 0.00 81 1004.3
20190425005108 13 180 4.8 4.8 0.05 0.56 0.00 81 1004.2
20190425003608 13 180 17.7 17.7 0.05 0.56 0.00 81 1004.1
20190425003108 13 203 6.4 6.4 0.05 0.56 0.00 81 1004.1
20190425002608 13 203 8.0 8.0 0.05 0.56 0.00 81 1004.0
20190425001607 13 203 1.6 1.6 0.10 0.56 0.00 81 1003.9
20190425001107 13 203 11.3 11.3 0.10 0.56 0.00 81 1003.6
20190425000107 13 180 6.4 6.4 0.15 0.56 0.00 80 1003.7
20190424235107 13 203 0.0 0.0 0.30 0.51 0.00 81 1003.6
20190424234608 13 225 0.0 0.0 0.36 0.51 0.00 80 1003.3
20190424233107 13 293 1.6 1.6 0.48 0.51 0.00 78 1001.4
20190424232107 14 203 0.0 0.0 0.41 0.48 0.00 79 1002.6
20190424231108 14 203 0.0 0.0 0.48 0.48 0.00 79 1003.1
20190424230607 14 203 0.0 0.0 0.41 0.41 0.00 79 1002.8
20190424225108 14 180 3.2 3.2 0.15 0.15 0.00 78 1003.2
20190424223608 15 203 3.2 3.2 0.05 0.05 0.00 77 1002.8
20190424222108 15 203 0.0 0.0 0.05 0.05 0.00 77 1002.3
20190424220607 15 293 9.7 9.7 0.00 0.00 0.00 75 1002.1
20190424220107 15 180 0.0 0.0 0.00 0.00 0.00 75 1002.2
20190424214108 16 180 14.5 14.5 0.00 0.00 0.00 73 1001.9
20190424213108 17 68 1.6 8.0 0.00 0.00 0.00 72 1001.3
20190424212608 17 180 3.2 6.4 0.00 0.00 0.00 70 1001.1
20190424212108 17 203 0.0 6.4 0.00 0.00 0.00 69 1000.9
20190424211107 18 203 0.0 0.0 0.00 0.00 0.00 66 1000.9
20190424210608 18 203 1.6 1.6 0.00 0.00 0.00 64 1000.5
20190424204608 20 225 3.2 3.2 0.00 0.00 0.00 62 999.3
20190424204107 20 180 3.2 3.2 0.00 0.00 0.00 62 999.2
20190424203607 20 158 1.6 1.6 0.00 0.00 0.00 61 998.3
20190424203107 20 135 4.8 4.8 0.00 0.00 0.00 61 998.1
20190424201608 20 113 8.0 8.0 0.00 0.00 0.00 61 998.2
20190424201108 20 113 6.4 6.4 0.00 0.00 0.00 61 998.2
20190424200107 20 113 6.4 6.4 0.00 0.00 0.00 61 998.3
20190424193608 20 113 3.2 3.2 0.00 0.00 0.00 60 998.6
20190424193108 20 135 8.0 8.0 0.00 0.00 0.00 60 998.5
20190424192607 20 113 4.8 4.8 0.00 0.00 0.00 60 998.5
20190424192108 20 113 8.0 8.0 0.00 0.00 0.00 60 998.6
20190424190608 21 113 4.8 4.8 0.00 0.00 0.00 59 998.7
20190424190107 21 113 4.8 6.4 0.00 0.00 0.00 58 998.7
20190424185607 21 113 6.4 6.4 0.00 0.00 0.00 59 998.7
20190424184608 21 113 6.4 6.4 0.00 0.00 0.00 58 998.6
20190424184108 21 113 3.2 3.2 0.00 0.00 0.00 58 998.5
20190424183607 21 113 1.6 1.6 0.00 0.00 0.00 57 998.3
20190424183108 22 113 3.2 3.2 0.00 0.00 0.00 57 998.3
20190424181608 22 135 0.0 0.0 0.00 0.00 0.00 56 998.3
20190424181108 22 113 4.8 4.8 0.00 0.00 0.00 55 998.4
20190424180608 22 113 8.0 8.0 0.00 0.00 0.00 55 998.3
20190424180137 22 113 12.9 12.9 0.00 0.00 0.00 55 998.3
20190424174608 23 113 6.4 6.4 0.00 0.00 0.00 55 998.5
20190424173608 23 90 11.3 11.3 0.00 0.00 0.00 54 998.4
20190424173108 23 135 4.8 4.8 0.00 0.00 0.00 54 998.4
20190424172607 23 113 3.2 3.2 0.00 0.00 0.00 53 998.4
20190424171108 23 113 4.8 4.8 0.00 0.00 0.00 53 998.4
20190424164608 23 113 11.3 11.3 0.00 0.00 0.00 51 998.2
20190424163608 23 158 6.4 6.4 0.00 0.00 0.00 51 998.1
20190424161108 23 135 8.0 8.0 0.00 0.00 0.00 51 998.3
20190424160607 23 113 6.4 6.4 0.00 0.00 0.00 50 998.2
20190424155607 23 135 3.2 3.2 0.00 0.00 0.00 49 998.4
20190424155108 24 158 1.6 1.6 0.00 0.00 0.00 48 998.3
20190424153608 24 135 3.2 3.2 0.00 0.00 0.00 48 998.4
20190424153108 24 158 3.2 3.2 0.00 0.00 0.00 49 998.5
20190424152108 24 135 0.0 0.0 0.00 0.00 0.00 48 998.5
20190424151608 24 135 8.0 8.0 0.00 0.00 0.00 48 998.5
20190424150608 24 158 3.2 3.2 0.00 0.00 0.00 49 998.6
20190424145608 24 135 3.2 3.2 0.00 0.00 0.00 49 998.7
20190424145108 24 113 6.4 6.4 0.00 0.00 0.00 48 998.7
20190424144107 24 113 6.4 6.4 0.00 0.00 0.00 49 998.6
20190424143607 24 158 6.4 6.4 0.00 0.00 0.00 49 998.7
20190424143109 24 135 3.2 3.2 0.00 0.00 0.00 49 998.7
20190424142608 24 135 4.8 4.8 0.00 0.00 0.00 49 998.9
20190424141608 24 113 6.4 6.4 0.00 0.00 0.00 49 999.0
20190424135607 23 158 3.2 6.4 0.00 0.00 0.00 53 999.3
20190424135108 23 158 0.0 0.0 0.00 0.00 0.00 52 999.1
20190424133607 23 158 3.2 3.2 0.00 0.00 0.00 50 999.3
20190424133108 23 203 4.8 4.8 0.00 0.00 0.00 51 999.2
20190424131609 23 158 1.6 1.6 0.00 0.00 0.00 52 999.5
20190424130608 23 135 6.4 6.4 0.00 0.00 0.00 52 999.5
20190424130108 23 158 4.8 4.8 0.00 0.00 0.00 53 999.5
20190424125108 23 135 6.4 6.4 0.00 0.00 0.00 54 999.4
20190424124607 23 158 0.0 3.2 0.00 0.00 0.00 54 999.6
20190424124107 23 90 11.3 11.3 0.00 0.00 0.00 55 999.7
20190424123607 23 135 6.4 6.4 0.00 0.00 0.00 55 999.7
20190424120108 22 135 0.0 0.0 0.00 0.00 0.00 58 999.2
20190424115108 22 180 1.6 1.6 0.00 0.00 0.00 59 999.7
20190424114108 22 113 11.3 11.3 0.00 0.00 0.00 59 999.8
20190424113607 22 135 4.8 4.8 0.00 0.00 0.00 60 999.9
20190424112608 22 135 6.4 6.4 0.00 0.00 0.00 60 999.8
20190424112107 22 158 3.2 3.2 0.00 0.00 0.00 60 999.8
20190424111607 22 135 1.6 1.6 0.00 0.00 0.00 61 999.8
20190424111107 22 158 3.2 3.2 0.00 0.00 0.00 60 999.9
20190424110608 22 158 0.0 0.0 0.00 0.00 0.00 61 999.7
20190424110107 21 158 0.0 0.0 0.00 0.00 0.00 62 999.6
20190424105108 21 135 0.0 0.0 0.00 0.00 0.00 61 999.6
20190424104608 21 158 0.0 0.0 0.00 0.00 0.00 61 999.6
20190424104108 21 158 8.0 8.0 0.00 0.00 0.00 60 999.6
20190424103108 21 158 4.8 4.8 0.00 0.00 0.00 61 999.5
20190424102108 21 158 1.6 1.6 0.00 0.00 0.00 62 999.5
20190424101607 20 180 1.6 1.6 0.00 0.00 0.00 62 999.6
20190424100608 20 135 6.4 6.4 0.00 0.00 0.00 62 999.6
20190424095607 20 135 0.0 0.0 0.00 0.00 0.00 63 999.4
20190424095107 20 135 3.2 3.2 0.00 0.00 0.00 64 999.3
20190424094108 20 135 9.7 9.7 0.00 0.00 0.00 65 999.4
20190424093608 20 180 0.0 0.0 0.00 0.00 0.00 65 999.4
20190424092608 19 158 0.0 1.6 0.00 0.00 0.00 66 999.4
20190424092108 19 113 12.9 12.9 0.00 0.00 0.00 68 999.5
20190424091608 19 135 3.2 3.2 0.00 0.00 0.00 68 999.3
20190424091107 18 135 4.8 4.8 0.00 0.00 0.00 67 999.3
20190424085608 18 158 0.0 0.0 0.00 0.00 0.00 68 999.2
20190424085108 18 135 3.2 3.2 0.00 0.00 0.00 69 999.2
20190424083608 17 135 1.6 1.6 0.00 0.00 0.00 69 999.1
20190424083110 17 135 0.0 0.0 0.00 0.00 0.00 69 999.1
20190424082608 17 158 3.2 3.2 0.00 0.00 0.00 71 999.1
20190424082107 17 135 4.8 4.8 0.00 0.00 0.00 71 999.0
20190424081608 17 135 0.0 0.0 0.00 0.00 0.00 72 998.9
20190424080107 16 135 3.2 3.2 0.00 0.00 0.00 71 998.8
20190424075109 16 135 1.6 1.6 0.00 0.00 0.00 71 998.7
20190424074609 16 113 8.0 8.0 0.00 0.00 0.00 72 998.8
20190424073608 16 135 1.6 1.6 0.00 0.00 0.00 73 998.8
20190424072608 16 113 4.8 4.8 0.00 0.00 0.00 74 998.7
20190424072108 15 135 4.8 4.8 0.00 0.00 0.00 75 998.6
20190424071607 15 135 3.2 3.2 0.00 0.00 0.00 75 998.6
20190424070607 15 158 4.8 4.8 0.00 0.00 0.00 75 998.6
20190424065108 14 113 3.2 3.2 0.00 0.00 0.00 75 998.6
20190424064608 14 135 8.0 8.0 0.00 0.00 0.00 76 998.5
20190424063608 14 135 6.4 6.4 0.00 0.00 0.00 76 998.5
20190424062607 13 135 6.4 6.4 0.00 0.00 0.00 76 998.3
20190424062108 13 135 1.6 1.6 0.00 0.00 0.00 76 998.3
20190424061116 13 113 3.2 3.2 0.00 0.00 0.00 76 998.2
20190424060607 13 135 0.0 0.0 0.00 0.00 0.00 76 998.2
20190424060107 13 135 3.2 3.2 0.00 0.00 0.00 75 998.1
20190424055607 13 113 4.8 4.8 0.00 0.00 0.00 75 998.0
20190424054608 13 135 3.2 3.2 0.00 0.00 0.00 75 998.1
20190424053107 13 135 0.0 0.0 0.00 0.00 0.00 73 998.0
20190424052108 13 135 1.6 1.6 0.00 0.00 0.00 73 997.7
20190424051608 13 158 0.0 0.0 0.00 0.00 0.00 73 997.8
20190424050608 13 113 3.2 3.2 0.00 0.00 0.00 72 997.6
20190424045607 13 135 0.0 0.0 0.00 0.00 0.00 71 997.6
20190424044607 13 135 0.0 4.8 0.00 0.00 0.00 71 997.6
20190424044111 13 135 3.2 3.2 0.00 0.00 0.00 71 997.4
20190424043107 13 135 3.2 3.2 0.00 0.00 0.00 70 997.3
20190424042607 13 113 4.8 4.8 0.00 0.00 0.00 70 997.3
20190424042108 13 113 4.8 4.8 0.00 0.00 0.00 70 997.3
20190424041608 13 113 6.4 6.4 0.00 0.00 0.00 70 997.3
20190424040607 13 113 3.2 3.2 0.00 0.00 0.00 70 997.2
20190424035607 13 113 1.6 1.6 0.00 0.00 0.00 70 997.3
20190424034607 13 135 3.2 3.2 0.00 0.00 0.00 69 997.3
20190424034108 13 135 3.2 3.2 0.00 0.00 0.00 69 997.2
20190424033108 13 113 3.2 3.2 0.00 0.00 0.00 69 997.2
20190424032108 13 158 0.0 0.0 0.00 0.00 0.00 68 997.1
20190424030608 13 113 4.8 4.8 0.00 0.00 0.00 68 997.1
20190424030107 13 113 0.0 0.0 0.00 0.00 0.00 68 997.2
20190424025608 13 135 0.0 0.0 0.00 0.00 0.00 67 997.2